Zurück zum Katalog

STARLINK-38054

AktivKommunikationVLEO
NORAD 100007·PAYLOAD·🇺🇸 United States

Gestartet Jul 14, 2026 von Vandenberg Space Force Base

Loading…

Nächste Überflüge (nächste 24 Stunden)

TLE

AktuellSource: Space-Track

Epoche: Sep 14, 2026, 14:06 UTC

1 A0007U 26160G   26257.58775456  .00206192  00000-0  12057-2 0  9998
2 A0007  70.0011 211.5383 0002894 278.0811  82.0060 15.77612162 11063

Verfolge STARLINK-38054 in Echtzeit mit AllMySat

Download on the App Store